Wetbulb
59.14 59.42 59.78 59.99 60.07 60.21 60.37 60.40 60.41 60.50 60.77 61.01 61.20 61.47 61.65 61.57 61.47 61.65 61.92 62.04 62.02 61.93 61.94 61.98 61.98 61.99 62.00 61.75 61.65 61.52 61.38 61.25 61.09 60.87 60.68 60.71 60.78 60.69 60.51 60.42 60.19 59.90 59.61 59.54 59.23 58.93 58.73 58.81 59.04 59.21 59.37 59.57 59.64 59.81 59.99 60.20 60.14 60.01 59.73 59.54 59.54 59.63 59.57 59.52 59.50 59.34 59.03 59.07 59.45
59.21 59.54 59.95 60.28 60.37 60.42 60.48 60.42 60.43 60.52 60.74 61.01 61.33 61.51 61.65 61.60 61.47 61.47 61.52 61.78 61.95 62.04 62.04 62.13 62.13 62.09 61.91 61.77 61.62 61.43 61.30 61.12 60.90 60.74 60.61 60.50 60.57 60.42 60.24 60.12 59.88 59.74 59.64 59.48 59.30 59.09 58.92 58.99 59.26 59.41 59.63 59.92 60.01 60.14 60.36 60.72 60.73 60.35 60.02 59.72 59.82 59.88 59.91 59.76 59.72 59.60 59.53 59.55 59.75
59.05 59.61 59.96 60.06 59.95 60.05 60.25 60.16 60.21 60.34 60.52 60.80 61.24 61.47 61.51 61.65 61.51 61.38 61.43 61.60 61.82 61.95 61.95 61.96 62.05 62.05 61.92 61.77 61.68 61.48 61.39 61.21 60.94 60.83 60.62 60.52 60.38 60.14 59.95 59.77 59.52 59.56 59.55 59.59 59.42 59.26 59.24 59.41 59.57 59.62 59.78 60.09 60.29 60.33 60.45 60.70 60.80 60.51 60.15 60.00 60.09 60.15 60.10 59.94 60.02 60.05 59.97 60.12 60.01
59.05 59.40 59.71 59.63 59.60 59.83 60.10 60.25 60.11 60.21 60.34 60.62 60.98 61.16 61.29 61.42 61.47 61.47 61.47 61.65 61.69 61.73 61.77 61.77 61.83 61.87 61.87 61.78 61.65 61.55 61.35 61.17 60.99 60.83 60.57 60.53 60.30 60.07 59.73 59.58 59.43 59.41 59.52 59.59 59.36 59.34 59.50 59.75 59.85 59.89 59.98 60.29 60.38 60.44 60.59 60.80 60.88 60.73 60.54 60.40 60.46 60.38 60.24 60.18 60.31 60.32 60.33 60.30 60.18
59.40 59.58 59.81 59.87 59.91 60.08 60.31 60.32 60.20 60.11 60.35 60.58 60.67 60.76 60.95 61.16 61.30 61.44 61.44 61.38 61.43 61.47 61.59 61.72 61.69 61.70 61.71 61.70 61.52 61.43 61.24 61.10 60.70 60.56 60.62 60.53 60.34 60.16 59.86 59.70 59.53 59.60 59.61 59.66 59.60 59.57 59.83 60.00 60.12 60.09 60.23 60.51 60.63 60.73 60.80 60.92 60.88 60.77 60.65 60.66 60.71 60.66 60.56 60.51 60.49 60.55 60.47 60.35 60.23
59.43 59.70 59.97 60.31 60.35 60.40 60.40 60.41 60.23 60.25 60.21 60.40 60.31 60.31 60.50 60.77 61.00 61.13 61.16 61.11 61.24 61.42 61.46 61.37 61.33 61.25 61.30 61.44 61.35 61.25 61.07 60.93 60.62 60.57 60.52 60.48 60.47 60.31 60.06 59.79 59.75 59.77 59.84 59.85 59.81 59.93 60.08 60.23 60.14 60.12 60.34 60.67 60.67 60.82 60.99 61.04 60.92 60.74 60.57 60.49 60.64 60.76 60.88 60.78 60.75 60.68 60.60 60.23 59.97
59.45 59.64 59.97 60.41 60.40 60.54 60.50 60.47 60.29 60.25 60.16 60.18 59.94 59.95 60.04 60.36 60.64 60.86 61.02 61.24 61.38 61.38 61.24 61.11 61.07 61.07 61.07 61.07 61.07 61.03 60.98 60.80 60.57 60.47 60.52 60.47 60.49 60.41 60.24 59.97 60.02 60.11 60.15 60.15 60.08 60.15 60.29 60.46 60.13 60.02 60.07 60.31 60.58 60.70 60.92 61.07 60.94 60.67 60.45 60.29 60.39 60.75 60.91 60.94 60.95 60.84 60.51 60.08 59.63
59.59 59.88 60.17 60.41 60.53 60.67 60.53 60.43 60.16 60.07 59.99 60.00 59.82 59.76 59.90 60.13 60.26 60.52 60.88 61.20 61.24 61.24 61.24 61.24 61.10 60.95 60.95 60.91 60.97 60.92 60.79 60.56 60.34 60.34 60.38 60.35 60.38 60.39 60.36 60.38 60.27 60.30 60.39 60.45 60.31 60.25 60.39 60.59 60.27 60.10 60.13 60.29 60.38 60.61 60.78 60.85 60.76 60.58 60.36 60.25 60.22 60.50 60.81 61.20 61.11 60.89 60.57 59.98 59.63
59.58 59.81 60.14 60.50 60.77 60.76 60.63 60.38 60.16 59.98 59.90 59.82 59.76 59.81 59.94 60.08 60.22 60.34 60.56 60.88 61.01 61.19 61.37 61.37 61.08 60.85 60.70 60.66 60.67 60.72 60.59 60.46 60.29 60.24 60.29 60.31 60.30 60.38 60.45 60.48 60.33 60.36 60.44 60.63 60.48 60.42 60.42 60.54 60.24 60.15 60.20 60.30 60.35 60.59 60.81 60.69 60.49 60.31 60.19 60.17 60.10 60.20 60.51 60.96 60.96 60.81 60.57 60.13 59.81
59.41 59.69 60.02 60.34 60.74 60.82 60.68 60.47 60.20 59.96 59.92 59.71 59.71 59.85 59.90 59.77 59.99 60.30 60.52 60.74 60.97 61.14 61.27 61.31 61.12 60.80 60.56 60.42 60.38 60.43 60.48 60.49 60.26 60.18 60.24 60.38 60.32 60.35 60.48 60.51 60.42 60.38 60.38 60.54 60.61 60.54 60.31 60.30 59.95 59.87 60.00 60.19 60.27 60.50 60.68 60.48 60.19 60.01 59.93 60.06 59.93 59.93 60.16 60.48 60.55 60.54 60.48 60.33 60.04
59.35 59.69 59.98 60.40 60.74 60.88 60.70 60.34 60.11 60.06 59.96 59.92 59.83 59.89 59.94 59.81 60.08 60.34 60.56 60.69 60.74 60.86 60.99 61.26 61.11 60.89 60.61 60.42 60.38 60.42 60.42 60.48 60.35 60.26 60.27 60.37 60.40 60.44 60.48 60.61 60.51 60.43 60.44 60.53 60.59 60.39 60.18 59.92 59.56 59.43 59.61 59.76 59.97 60.20 60.24 60.05 59.80 59.61 59.68 59.75 59.76 59.81 59.86 60.08 60.40 60.51 60.45 60.35 60.06
59.48 59.87 60.24 60.69 60.92 60.88 60.61 60.34 60.11 60.11 60.06 59.90 59.91 60.01 60.20 60.29 60.43 60.52 60.51 60.46 60.41 60.53 60.75 61.05 61.01 60.93 60.70 60.66 60.61 60.57 60.53 60.58 60.49 60.35 60.31 60.40 60.51 60.55 60.55 60.60 60.60 60.56 60.51 60.42 60.37 60.24 59.93 59.61 59.25 59.13 59.09 59.14 59.51 59.73 59.81 59.61 59.32 59.19 59.21 59.00 59.14 59.33 59.52 59.62 59.96 60.32 60.49 60.33 59.86
59.76 60.14 60.41 60.77 60.87 60.74 60.56 60.34 60.16 60.16 60.16 59.95 60.04 60.18 60.41 60.50 60.58 60.58 60.49 60.30 60.26 60.49 60.72 60.93 61.01 60.96 60.83 60.80 60.75 60.76 60.76 60.72 60.58 60.53 60.49 60.53 60.60 60.60 60.54 60.55 60.55 60.46 60.38 60.20 60.15 59.93 59.61 59.25 58.98 58.68 58.55 58.57 58.89 59.11 59.18 59.22 58.98 58.77 58.51 58.26 58.48 58.84 59.07 59.11 59.34 59.61 59.73 59.76 59.61
59.96 60.18 60.40 60.66 60.64 60.56 60.43 60.25 60.16 60.21 60.25 60.14 60.18 60.41 60.59 60.77 60.76 60.66 60.56 60.42 60.38 60.48 60.67 60.81 60.89 60.88 60.88 60.83 60.84 60.80 60.80 60.80 60.71 60.66 60.53 60.62 60.66 60.60 60.51 60.38 60.33 60.20 59.97 59.94 59.66 59.43 59.21 58.89 58.62 58.40 58.28 58.15 58.25 58.38 58.55 58.81 58.50 58.19 57.88 57.75 58.07 58.34 58.51 58.52 58.57 58.66 58.75 58.97 58.95
60.01 60.22 60.33 60.51 60.40 60.32 60.16 60.02 60.07 60.12 60.11 60.20 60.37 60.50 60.68 60.87 60.82 60.76 60.71 60.56 60.51 60.57 60.72 60.77 60.82 60.76 60.80 60.87 60.83 60.78 60.84 60.75 60.65 60.61 60.43 60.44 60.43 60.39 60.21 60.03 59.80 59.61 59.49 59.31 59.13 58.89 58.71 58.53 58.35 58.26 58.00 57.92 57.79 57.79 57.97 58.23 57.96 57.74 57.56 57.60 57.78 57.88 57.70 57.49 57.54 57.80 58.11 58.29 57.93
59.74 59.91 60.13 60.17 60.08 59.96 59.89 59.80 59.89 59.94 60.02 60.16 60.29 60.42 60.56 60.61 60.79 60.83 60.59 60.49 60.49 60.59 60.59 60.59 60.64 60.74 60.68 60.53 60.66 60.71 60.72 60.67 60.48 60.30 60.21 60.08 60.04 59.90 59.76 59.54 59.31 59.18 58.95 58.73 58.51 58.41 58.31 58.21 58.12 58.03 57.85 57.64 57.51 57.38 57.38 57.56 57.28 57.06 56.97 57.01 57.10 56.98 56.58 56.18 56.46 56.95 57.44 57.56 56.81
59.62 59.66 59.71 59.79 59.68 59.63 59.64 59.56 59.62 59.71 59.84 59.97 60.01 60.11 60.16 60.34 60.57 60.48 60.29 60.20 60.29 60.29 60.29 60.29 60.38 60.43 60.29 60.11 60.38 60.41 60.41 60.32 60.18 60.04 59.90 59.77 59.63 59.50 59.31 59.13 58.90 58.86 58.62 58.41 58.15 58.01 57.92 57.91 57.95 57.85 57.67 57.46 57.20 57.07 56.89 56.80 56.48 56.26 56.17 56.26 56.35 56.13 55.86 55.46 55.78 56.23 56.45 56.49 55.86
59.52 59.43 59.39 59.34 59.33 59.36 59.36 59.32 59.29 59.34 59.47 59.56 59.74 59.84 59.89 60.03 60.13 60.08 59.94 59.89 59.97 59.83 59.80 59.80 59.89 59.98 59.84 59.80 59.98 60.07 60.01 59.92 59.87 59.68 59.63 59.49 59.35 59.22 59.08 58.89 58.80 58.71 58.58 58.40 58.09 57.87 57.65 57.56 57.60 57.50 57.42 57.15 56.88 56.62 56.40 56.27 56.00 55.86 55.81 56.09 56.08 55.95 55.68 55.51 55.64 55.82 55.86 55.54 55.27
59.39 59.25 59.16 59.12 59.12 59.11 59.05 59.00 58.96 59.01 59.11 59.24 59.42 59.51 59.61 59.66 59.62 59.57 59.62 59.57 59.47 59.37 59.29 59.25 59.34 59.34 59.33 59.33 59.52 59.52 59.47 59.50 59.45 59.40 59.31 59.25 59.21 59.03 58.89 58.80 58.76 58.66 58.53 58.39 58.09 57.73 57.51 57.34 57.25 57.16 57.07 56.89 56.67 56.40 56.23 56.00 55.91 55.82 55.86 56.00 55.90 55.81 55.68 55.63 55.68 55.86 55.77 55.36 54.99
59.24 59.11 59.07 59.07 58.98 58.98 58.98 58.92 58.91 58.92 58.94 58.94 59.11 59.15 59.24 59.34 59.29 59.16 59.07 58.98 59.02 58.91 58.78 58.66 58.71 58.75 58.84 58.92 58.88 58.89 58.93 59.10 59.13 59.04 58.89 58.89 58.86 58.68 58.58 58.53 58.44 58.40 58.31 58.13 57.73 57.47 57.25 57.11 56.98 56.85 56.80 56.71 56.45 56.32 56.04 55.78 55.60 55.55 55.55 55.73 55.63 55.63 55.49 55.58 55.63 55.63 55.54 55.31 54.95
58.47 58.65 58.96 59.24 59.16 59.03 58.94 58.89 58.83 58.88 58.80 58.77 58.72 58.80 58.93 58.97 58.89 58.75 58.66 58.62 58.70 58.60 58.42 58.29 58.15 58.20 58.25 58.33 58.34 58.30 58.39 58.48 58.55 58.50 58.41 58.28 58.24 58.19 58.19 58.10 58.10 57.96 57.79 57.56 57.25 57.07 56.89 56.71 56.67 56.53 56.49 56.45 56.41 56.18 55.86 55.51 55.15 54.92 54.88 55.10 55.01 54.87 54.96 55.05 55.10 55.05 55.01 54.87 54.55
53.67 54.30 55.25 56.79 58.49 59.12 59.07 58.98 58.89 58.89 58.71 58.64 58.56 58.54 58.67 58.71 58.62 58.53 58.48 58.48 58.48 58.38 58.15 58.06 58.02 57.93 57.88 57.93 57.93 57.88 57.94 57.90 57.98 58.02 57.88 57.80 57.75 57.70 57.75 57.75 57.61 57.35 57.13 56.85 56.81 56.58 56.31 56.13 56.21 56.17 56.13 56.09 56.04 55.77 55.46 55.10 54.65 54.38 54.11 53.97 53.75 53.66 53.66 53.79 53.97 53.93 53.75 53.70 53.61
51.27 51.54 52.04 52.81 54.80 56.51 57.91 58.71 58.84 58.80 58.58 58.37 58.01 57.97 58.06 58.14 58.09 58.14 58.13 58.27 58.13 58.08 57.98 57.93 57.88 57.88 57.79 57.79 57.79 57.70 57.71 57.63 57.63 57.63 57.58 57.54 57.40 57.40 57.40 57.54 57.26 56.90 56.68 56.63 56.54 56.31 56.00 55.73 55.68 55.68 55.63 55.54 55.41 55.09 54.83 54.51 54.11 53.79 53.39 52.94 52.58 52.31 52.18 52.26 52.40 52.26 52.17 52.03 51.94
50.46 50.45 50.45 50.50 50.86 51.81 52.99 54.35 55.52 56.47 56.93 56.93 56.93 56.93 57.02 57.06 57.11 57.20 57.33 57.47 57.56 57.59 57.63 57.81 57.90 57.94 57.89 57.93 57.84 57.70 57.62 57.45 57.36 57.32 57.32 57.27 57.18 57.09 57.09 57.27 57.13 56.90 56.76 56.72 56.27 55.91 55.68 55.55 55.51 55.46 55.32 55.23 54.87 54.60 54.24 53.92 53.65 53.25 52.75 52.03 51.59 51.14 50.78 50.69 50.64 50.64 50.50 50.32 50.27
49.28 49.46 49.50 49.51 49.46 49.46 49.41 49.46 49.69 50.23 51.18 52.54 53.99 54.99 55.66 56.02 56.16 56.16 55.98 55.80 55.93 56.11 56.37 56.78 57.27 57.58 57.81 57.82 57.76 57.76 57.67 57.49 57.27 57.00 56.96 56.83 56.92 56.92 56.91 57.05 57.13 57.08 56.86 56.09 54.47 54.02 54.37 55.00 55.28 55.37 55.33 55.10 54.56 54.15 53.75 53.34 52.97 52.66 52.07 51.44 50.81 50.18 49.60 49.01 48.92 48.97 48.97 48.87 48.92
48.11 48.24 48.33 48.47 48.60 48.69 48.69 48.51 48.38 48.29 48.42 48.78 49.78 51.14 52.54 53.90 54.67 54.89 54.67 54.17 53.94 54.21 54.85 55.65 56.47 56.78 57.01 57.28 57.33 57.41 57.41 57.45 57.26 56.86 56.51 56.33 56.38 56.56 56.78 57.00 57.13 57.13 56.60 54.89 53.58 53.53 54.11 54.60 54.51 54.65 54.74 54.74 54.11 53.52 53.03 52.57 52.08 51.67 51.31 50.72 50.14 49.46 48.65 48.02 47.56 47.43 47.43 47.56 47.52
47.16 47.16 47.20 47.47 47.52 47.52 47.74 47.97 48.11 48.11 47.97 47.93 47.88 48.15 48.88 50.05 51.45 52.31 52.63 52.59 52.59 53.09 53.76 54.48 54.84 55.30 55.75 56.52 56.42 56.42 56.56 56.65 56.55 56.28 55.96 55.82 55.96 56.23 56.64 56.95 56.95 56.73 55.79 53.86 53.22 53.49 54.12 54.39 54.20 53.93 53.79 53.88 53.34 52.80 52.12 51.31 50.59 50.32 50.09 49.73 49.37 48.78 48.20 47.34 46.71 46.34 46.16 46.16 46.30
46.39 46.44 46.48 46.57 46.57 46.62 46.84 47.11 47.20 47.38 47.47 47.56 47.56 47.56 47.65 47.79 48.20 48.83 49.51 50.28 50.87 51.45 51.95 52.18 52.40 53.40 54.39 55.11 54.75 54.71 54.71 54.80 54.84 54.75 54.61 54.61 55.01 55.51 56.00 56.37 56.28 55.70 54.62 53.36 53.31 53.58 53.99 54.17 53.94 53.53 53.12 52.71 52.12 51.40 50.54 49.73 49.10 48.83 48.74 48.60 48.38 47.97 47.43 46.89 46.16 45.71 45.35 45.17 45.39
45.94 45.94 45.90 45.76 45.80 45.89 46.12 46.26 46.30 46.43 46.71 46.93 47.07 47.11 47.07 46.98 46.89 46.93 47.11 47.61 48.15 48.74 49.37 49.92 50.60 51.41 52.04 52.13 51.95 52.09 52.31 52.49 53.08 53.03 52.63 52.31 52.54 52.90 53.34 53.57 53.97 53.80 53.40 52.99 53.44 53.72 53.76 53.67 53.40 53.12 52.71 51.80 51.04 50.32 49.50 48.60 48.11 47.84 47.56 47.43 47.34 47.02 46.66 46.26 45.80 45.35 44.99 44.72 44.76
45.72 45.62 45.49 45.31 45.31 45.40 45.53 45.62 45.85 46.03 46.21 46.34 46.44 46.44 46.30 46.16 46.07 46.03 46.03 45.98 46.25 46.75 47.52 48.38 49.06 49.37 49.37 49.33 49.64 49.96 50.23 50.32 51.05 51.18 51.09 51.00 50.78 50.55 50.37 50.50 51.22 51.81 52.31 52.99 53.62 53.67 53.44 53.03 52.80 52.44 51.85 50.81 49.86 49.19 48.60 47.88 47.43 46.98 46.66 46.39 46.16 46.03 45.71 45.40 45.08 44.72 44.49 44.36 44.13
45.62 45.53 45.31 45.13 45.04 45.08 45.17 45.40 45.62 45.80 45.89 45.89 45.76 45.62 45.53 45.40 45.31 45.44 45.53 45.71 45.89 46.34 46.84 47.16 47.34 47.38 47.43 47.70 48.11 48.42 48.70 49.15 49.83 50.05 50.14 50.14 49.78 49.46 49.37 49.64 50.05 50.59 51.45 52.58 53.30 53.30 52.89 52.44 51.90 51.27 50.54 49.73 49.05 48.42 47.88 47.25 46.80 46.48 46.07 45.67 45.40 45.13 44.95 44.77 44.49 44.22 44.00 43.77 43.55
45.45 45.31 45.13 44.90 44.77 44.77 44.95 45.17 45.35 45.40 45.35 45.31 45.17 45.08 44.99 44.81 44.99 45.12 45.35 45.58 45.67 45.80 45.94 46.07 46.07 46.16 46.34 46.70 46.98 47.34 47.79 48.15 48.74 49.01 49.15 49.01 48.69 48.69 48.88 49.24 49.78 50.32 51.00 51.86 52.40 52.35 51.90 51.40 50.63 50.05 49.41 48.87 48.15 47.38 46.80 46.53 46.12 45.76 45.44 45.08 44.81 44.68 44.49 44.36 44.04 43.82 43.68 43.51 43.37
45.22 45.04 44.91 44.72 44.63 44.68 44.77 44.86 44.95 44.99 44.90 44.81 44.72 44.63 44.49 44.54 44.67 44.81 44.99 45.17 45.22 45.13 45.08 45.21 45.26 45.35 45.44 45.76 45.98 46.25 46.61 47.07 47.52 47.88 48.11 48.15 48.06 48.20 48.33 48.70 49.24 49.83 50.41 51.14 51.36 51.13 50.68 50.14 49.50 49.05 48.51 47.97 46.98 46.12 45.67 45.49 45.26 44.90 44.63 44.36 44.27 44.22 44.14 44.00 43.82 43.68 43.51 43.42 43.33
44.95 44.82 44.64 44.54 44.54 44.59 44.63 44.63 44.63 44.55 44.46 44.32 44.27 44.27 44.22 44.22 44.22 44.31 44.40 44.72 44.76 44.81 44.81 44.85 44.94 45.08 45.30 45.57 45.71 45.89 46.21 46.61 46.75 46.93 47.11 47.34 47.47 47.52 47.61 47.84 48.47 49.01 49.64 50.32 50.36 50.18 49.69 49.23 48.78 48.29 47.70 46.98 45.71 44.99 44.58 44.36 44.18 43.90 43.54 43.41 43.45 43.59 43.64 43.68 43.55 43.46 43.28 43.24 43.15
44.59 44.46 44.36 44.36 44.41 44.41 44.41 44.41 44.37 44.32 44.10 43.91 43.86 43.86 44.00 44.00 43.91 43.99 44.22 44.45 44.54 44.54 44.58 44.76 44.99 45.21 45.39 45.62 45.80 45.94 45.98 46.12 46.21 46.39 46.61 46.80 46.80 46.75 46.75 46.89 47.56 48.15 48.79 49.33 49.28 49.10 48.78 48.42 47.92 47.29 46.48 45.53 44.45 43.86 43.50 43.28 43.00 42.73 42.55 42.50 42.55 42.59 42.73 42.82 42.73 42.69 42.65 42.56 42.42
44.32 44.18 44.09 44.00 44.09 44.14 44.18 44.18 44.10 44.01 43.78 43.68 43.64 43.64 43.73 43.77 43.90 44.09 44.31 44.45 44.32 44.27 44.18 44.36 44.54 44.72 44.81 45.03 45.30 45.53 45.67 45.62 45.71 45.85 46.07 46.16 46.07 45.89 45.80 46.03 46.57 47.25 47.88 48.33 48.24 48.06 47.83 47.43 46.84 46.12 45.27 44.18 43.36 42.96 42.73 42.51 42.24 42.01 41.83 41.69 41.55 41.51 41.46 41.55 41.46 41.42 41.56 41.61 41.61
44.02 43.97 43.92 43.78 43.73 43.82 43.82 43.91 43.73 43.55 43.46 43.37 43.41 43.45 43.50 43.63 43.72 43.99 44.22 44.27 43.91 43.73 43.64 43.77 43.86 43.86 43.99 44.22 44.62 44.94 45.26 45.44 45.40 45.31 45.40 45.53 45.35 45.13 44.99 45.08 45.44 46.12 46.75 47.38 47.34 47.16 46.84 46.44 45.94 45.18 44.19 42.96 42.33 42.14 42.01 41.83 41.60 41.33 41.06 40.74 40.51 40.38 40.38 40.42 40.38 40.38 40.52 40.70 40.88
43.63 43.63 43.58 43.49 43.43 43.47 43.51 43.51 43.37 43.32 43.18 43.23 43.27 43.41 43.45 43.54 43.59 43.77 43.95 44.00 43.59 43.36 43.23 43.23 43.27 43.41 43.63 43.95 44.22 44.53 44.90 45.22 45.17 44.95 44.68 44.58 44.54 44.36 44.18 43.99 44.35 44.90 45.62 46.30 46.39 46.17 45.94 45.63 45.13 44.42 43.51 42.24 41.79 41.60 41.51 41.24 40.97 40.65 40.24 39.83 39.51 39.38 39.38 39.61 39.65 39.70 39.88 40.11 40.57
43.26 43.17 43.14 43.14 43.13 43.22 43.17 43.12 43.11 43.05 43.01 43.14 43.23 43.23 43.36 43.36 43.41 43.58 43.72 43.81 43.50 43.27 43.05 42.95 43.04 43.27 43.58 43.81 43.95 44.04 44.31 44.58 44.77 44.59 44.22 43.82 43.77 43.73 43.55 43.36 43.54 43.99 44.67 45.40 45.49 45.40 45.18 44.91 44.51 43.97 43.16 42.11 41.52 41.29 41.15 40.79 40.25 39.84 39.39 39.02 38.61 38.29 38.20 38.52 38.79 39.06 39.47 39.93 40.80
42.83 42.66 42.53 42.63 42.76 42.81 42.85 42.89 42.93 43.01 43.14 43.14 43.10 43.05 43.09 43.13 43.27 43.45 43.54 43.63 43.45 43.27 43.05 42.91 42.91 43.13 43.41 43.54 43.36 43.23 43.31 43.68 43.86 43.91 43.77 43.36 43.18 42.96 42.87 42.96 43.00 43.36 43.95 44.63 44.86 44.82 44.69 44.46 44.10 43.52 42.71 41.56 41.11 40.93 40.84 40.43 39.75 39.16 38.75 38.48 38.12 37.75 37.48 37.43 37.93 38.38 38.93 39.51 40.70
42.69 42.37 42.01 41.97 42.07 42.21 42.39 42.52 42.79 42.92 43.10 43.10 42.96 43.05 43.09 43.18 43.14 43.18 43.18 43.09 43.05 43.00 42.86 42.72 42.63 42.72 42.86 42.96 42.73 42.46 42.28 42.27 42.63 43.00 43.18 42.91 42.78 42.55 42.46 42.42 42.32 42.54 43.09 43.91 44.32 44.46 44.33 44.10 43.61 43.16 42.35 41.07 40.61 40.57 40.57 40.12 39.30 38.62 38.12 37.98 37.89 37.57 37.16 36.80 37.16 37.48 37.93 38.34 39.43
MSLP
1001.43 1001.51 1001.57 1001.63 1001.69 1001.71 1001.79 1001.81 1001.81 1001.81 1001.85 1001.87 1001.87 1001.91 1001.97 1001.99 1001.93 1001.85 1001.71 1001.63 1001.71 1001.91 1002.19 1002.57 1002.97 1003.35 1003.71 1004.07 1004.41 1004.71 1005.07 1005.51 1005.87 1006.21 1006.47 1006.69 1006.93 1007.21 1007.57 1007.91 1008.21 1008.53 1008.81 1009.03 1009.29 1009.47 1009.57 1009.53 1009.63 1009.75 1009.93 1010.07 1010.21 1010.37 1010.53 1010.69 1010.85 1010.99 1011.15 1011.31 1011.53 1011.71 1011.91 1012.13 1012.31 1012.47 1012.63 1012.75 1012.79
1001.09 1001.15 1001.29 1001.37 1001.43 1001.51 1001.57 1001.63 1001.63 1001.63 1001.65 1001.69 1001.71 1001.75 1001.79 1001.81 1001.81 1001.71 1001.59 1001.53 1001.59 1001.79 1002.09 1002.53 1002.93 1003.31 1003.69 1004.09 1004.43 1004.79 1005.13 1005.51 1005.85 1006.19 1006.47 1006.71 1006.97 1007.25 1007.57 1007.87 1008.25 1008.59 1008.87 1009.13 1009.37 1009.53 1009.53 1009.47 1009.53 1009.65 1009.85 1009.99 1010.15 1010.31 1010.43 1010.57 1010.69 1010.85 1011.03 1011.19 1011.35 1011.57 1011.81 1012.07 1012.21 1012.31 1012.43 1012.57 1012.69
1000.87 1000.91 1000.99 1001.13 1001.21 1001.29 1001.29 1001.35 1001.37 1001.41 1001.47 1001.53 1001.59 1001.59 1001.59 1001.57 1001.59 1001.57 1001.47 1001.43 1001.51 1001.71 1002.07 1002.47 1002.85 1003.25 1003.65 1004.07 1004.43 1004.79 1005.13 1005.43 1005.75 1006.09 1006.43 1006.75 1006.99 1007.29 1007.63 1007.97 1008.31 1008.59 1008.81 1009.03 1009.25 1009.41 1009.47 1009.41 1009.43 1009.53 1009.69 1009.87 1010.07 1010.21 1010.37 1010.51 1010.59 1010.71 1010.87 1010.99 1011.21 1011.47 1011.75 1011.97 1012.13 1012.25 1012.37 1012.51 1012.59
1000.69 1000.65 1000.69 1000.79 1000.93 1000.97 1000.93 1000.97 1001.09 1001.19 1001.29 1001.37 1001.43 1001.43 1001.41 1001.37 1001.43 1001.43 1001.37 1001.35 1001.47 1001.71 1001.99 1002.41 1002.85 1003.29 1003.71 1004.09 1004.51 1004.85 1005.13 1005.41 1005.69 1006.03 1006.37 1006.69 1006.97 1007.25 1007.57 1007.91 1008.25 1008.47 1008.65 1008.85 1009.09 1009.31 1009.37 1009.35 1009.35 1009.41 1009.53 1009.71 1009.91 1010.09 1010.25 1010.41 1010.51 1010.59 1010.69 1010.85 1011.09 1011.37 1011.63 1011.85 1011.99 1012.15 1012.31 1012.43 1012.51
1000.37 1000.37 1000.43 1000.53 1000.63 1000.65 1000.65 1000.71 1000.87 1000.99 1001.13 1001.21 1001.25 1001.21 1001.19 1001.19 1001.31 1001.35 1001.31 1001.35 1001.47 1001.69 1001.97 1002.37 1002.85 1003.35 1003.81 1004.19 1004.53 1004.87 1005.19 1005.47 1005.71 1005.99 1006.35 1006.65 1006.87 1007.15 1007.47 1007.79 1008.07 1008.29 1008.51 1008.75 1009.03 1009.21 1009.29 1009.29 1009.29 1009.35 1009.43 1009.57 1009.71 1009.87 1010.03 1010.19 1010.31 1010.43 1010.57 1010.75 1010.99 1011.25 1011.51 1011.75 1011.93 1012.07 1012.19 1012.31 1012.41
1000.09 1000.15 1000.25 1000.35 1000.37 1000.41 1000.43 1000.57 1000.65 1000.81 1000.97 1001.07 1001.03 1000.99 1001.03 1001.09 1001.19 1001.21 1001.19 1001.25 1001.43 1001.71 1002.03 1002.43 1002.91 1003.41 1003.87 1004.29 1004.63 1004.97 1005.25 1005.51 1005.75 1006.03 1006.31 1006.59 1006.85 1007.15 1007.47 1007.79 1007.97 1008.21 1008.47 1008.71 1008.93 1009.09 1009.13 1009.15 1009.19 1009.25 1009.37 1009.51 1009.59 1009.71 1009.81 1009.93 1010.09 1010.21 1010.41 1010.69 1010.97 1011.21 1011.47 1011.71 1011.85 1011.97 1012.09 1012.21 1012.35
999.87 999.97 1000.07 1000.13 1000.15 1000.15 1000.19 1000.31 1000.51 1000.65 1000.81 1000.87 1000.87 1000.85 1000.87 1000.93 1001.07 1001.07 1001.07 1001.19 1001.47 1001.79 1002.15 1002.57 1003.03 1003.53 1003.97 1004.41 1004.79 1005.09 1005.31 1005.53 1005.79 1006.03 1006.25 1006.53 1006.81 1007.13 1007.41 1007.65 1007.91 1008.13 1008.35 1008.57 1008.79 1008.87 1008.93 1008.93 1008.99 1009.13 1009.25 1009.35 1009.47 1009.57 1009.63 1009.71 1009.85 1010.03 1010.31 1010.65 1010.93 1011.21 1011.43 1011.57 1011.71 1011.85 1011.97 1012.09 1012.19
999.69 999.79 999.85 999.91 999.91 999.87 999.93 1000.09 1000.35 1000.53 1000.65 1000.71 1000.69 1000.69 1000.75 1000.87 1000.97 1000.99 1001.07 1001.21 1001.51 1001.81 1002.19 1002.63 1003.09 1003.47 1003.81 1004.21 1004.65 1004.97 1005.19 1005.43 1005.69 1005.93 1006.19 1006.43 1006.69 1006.93 1007.19 1007.41 1007.65 1007.87 1008.13 1008.35 1008.57 1008.69 1008.75 1008.81 1008.87 1008.97 1009.13 1009.25 1009.35 1009.43 1009.51 1009.57 1009.71 1009.97 1010.29 1010.65 1010.93 1011.15 1011.35 1011.47 1011.59 1011.71 1011.81 1011.91 1011.99
999.57 999.63 999.69 999.71 999.65 999.65 999.71 999.93 1000.15 1000.35 1000.47 1000.51 1000.57 1000.59 1000.69 1000.87 1000.97 1001.07 1001.15 1001.31 1001.53 1001.81 1002.19 1002.59 1002.99 1003.35 1003.65 1003.99 1004.37 1004.65 1004.91 1005.15 1005.47 1005.75 1006.07 1006.31 1006.57 1006.75 1006.99 1007.25 1007.51 1007.75 1007.99 1008.21 1008.41 1008.53 1008.59 1008.69 1008.79 1008.87 1008.97 1009.09 1009.19 1009.29 1009.37 1009.51 1009.69 1009.97 1010.29 1010.59 1010.91 1011.13 1011.29 1011.37 1011.47 1011.53 1011.63 1011.75 1011.85
999.41 999.51 999.57 999.57 999.47 999.43 999.57 999.81 1000.03 1000.19 1000.31 1000.37 1000.47 1000.59 1000.75 1000.93 1001.07 1001.21 1001.35 1001.47 1001.69 1001.97 1002.25 1002.59 1002.93 1003.25 1003.59 1003.87 1004.13 1004.37 1004.63 1004.91 1005.21 1005.53 1005.85 1006.19 1006.43 1006.65 1006.85 1007.13 1007.41 1007.65 1007.93 1008.15 1008.31 1008.37 1008.47 1008.57 1008.65 1008.75 1008.85 1008.91 1009.03 1009.15 1009.31 1009.43 1009.69 1009.97 1010.25 1010.53 1010.81 1011.07 1011.25 1011.31 1011.37 1011.43 1011.51 1011.57 1011.63
999.19 999.29 999.37 999.35 999.21 999.21 999.41 999.69 999.93 1000.13 1000.21 1000.31 1000.51 1000.65 1000.85 1001.03 1001.21 1001.41 1001.57 1001.69 1001.91 1002.13 1002.31 1002.59 1002.91 1003.21 1003.57 1003.81 1004.03 1004.25 1004.47 1004.75 1005.03 1005.31 1005.65 1005.99 1006.35 1006.57 1006.71 1006.93 1007.19 1007.47 1007.75 1007.97 1008.13 1008.21 1008.29 1008.37 1008.51 1008.63 1008.71 1008.85 1008.93 1009.09 1009.25 1009.43 1009.65 1009.93 1010.25 1010.51 1010.75 1010.97 1011.13 1011.21 1011.25 1011.31 1011.37 1011.37 1011.47
998.97 999.09 999.15 999.07 998.99 999.09 999.35 999.59 999.87 1000.07 1000.21 1000.35 1000.53 1000.71 1000.91 1001.13 1001.35 1001.51 1001.69 1001.81 1001.99 1002.19 1002.37 1002.59 1002.87 1003.15 1003.47 1003.79 1003.99 1004.21 1004.43 1004.69 1004.93 1005.19 1005.51 1005.87 1006.19 1006.43 1006.65 1006.81 1006.99 1007.25 1007.53 1007.79 1007.97 1008.03 1008.09 1008.19 1008.35 1008.51 1008.63 1008.79 1008.91 1009.07 1009.21 1009.41 1009.65 1009.93 1010.21 1010.47 1010.69 1010.87 1010.99 1011.09 1011.15 1011.19 1011.21 1011.25 1011.37
998.81 998.91 998.93 998.87 998.91 999.09 999.31 999.59 999.85 1000.07 1000.21 1000.31 1000.51 1000.71 1000.97 1001.21 1001.41 1001.57 1001.69 1001.85 1001.99 1002.21 1002.43 1002.65 1002.87 1003.13 1003.37 1003.65 1003.91 1004.15 1004.37 1004.63 1004.85 1005.09 1005.43 1005.79 1006.03 1006.29 1006.53 1006.71 1006.91 1007.09 1007.35 1007.57 1007.71 1007.81 1007.91 1008.03 1008.19 1008.35 1008.53 1008.69 1008.85 1008.99 1009.15 1009.37 1009.59 1009.87 1010.15 1010.43 1010.59 1010.75 1010.85 1010.93 1011.03 1011.09 1011.13 1011.21 1011.35
998.69 998.75 998.69 998.69 998.87 999.13 999.35 999.59 999.85 1000.03 1000.19 1000.31 1000.47 1000.71 1000.97 1001.21 1001.41 1001.53 1001.65 1001.85 1002.03 1002.25 1002.47 1002.71 1002.93 1003.13 1003.31 1003.53 1003.79 1004.03 1004.29 1004.53 1004.79 1005.09 1005.41 1005.69 1005.91 1006.13 1006.35 1006.57 1006.75 1006.97 1007.15 1007.37 1007.53 1007.63 1007.71 1007.87 1008.07 1008.21 1008.41 1008.57 1008.79 1008.93 1009.09 1009.29 1009.51 1009.75 1009.99 1010.25 1010.47 1010.59 1010.71 1010.85 1010.93 1010.99 1011.07 1011.19 1011.35
998.57 998.57 998.53 998.65 998.87 999.15 999.37 999.57 999.81 999.97 1000.13 1000.29 1000.47 1000.69 1000.93 1001.15 1001.31 1001.43 1001.59 1001.81 1002.03 1002.25 1002.47 1002.71 1002.97 1003.15 1003.29 1003.43 1003.65 1003.91 1004.15 1004.43 1004.71 1005.03 1005.31 1005.57 1005.79 1005.99 1006.21 1006.41 1006.63 1006.85 1007.03 1007.21 1007.37 1007.51 1007.57 1007.71 1007.91 1008.13 1008.31 1008.51 1008.69 1008.85 1009.03 1009.21 1009.43 1009.65 1009.87 1010.09 1010.29 1010.47 1010.63 1010.79 1010.87 1010.93 1010.99 1011.13 1011.35
998.37 998.41 998.51 998.69 998.93 999.15 999.35 999.53 999.75 999.93 1000.09 1000.29 1000.51 1000.69 1000.91 1001.09 1001.29 1001.43 1001.65 1001.85 1002.07 1002.29 1002.51 1002.69 1002.91 1003.09 1003.29 1003.47 1003.63 1003.81 1004.07 1004.35 1004.63 1004.87 1005.13 1005.37 1005.63 1005.87 1006.13 1006.31 1006.53 1006.69 1006.87 1007.07 1007.29 1007.41 1007.53 1007.63 1007.79 1007.99 1008.21 1008.43 1008.63 1008.81 1008.99 1009.19 1009.43 1009.69 1009.87 1010.03 1010.21 1010.37 1010.57 1010.69 1010.79 1010.85 1010.93 1011.07 1011.29
998.25 998.35 998.53 998.79 998.97 999.15 999.35 999.57 999.79 999.97 1000.15 1000.31 1000.53 1000.71 1000.93 1001.13 1001.35 1001.53 1001.71 1001.91 1002.09 1002.31 1002.51 1002.65 1002.85 1003.03 1003.29 1003.51 1003.65 1003.81 1003.99 1004.25 1004.51 1004.75 1004.99 1005.25 1005.47 1005.75 1005.99 1006.19 1006.37 1006.53 1006.75 1006.97 1007.19 1007.37 1007.51 1007.65 1007.79 1007.97 1008.19 1008.37 1008.59 1008.81 1008.99 1009.25 1009.51 1009.71 1009.91 1010.03 1010.19 1010.31 1010.43 1010.59 1010.71 1010.81 1010.91 1011.07 1011.21
998.19 998.37 998.63 998.85 998.99 999.19 999.41 999.65 999.87 1000.07 1000.25 1000.41 1000.59 1000.79 1000.99 1001.21 1001.47 1001.63 1001.75 1001.87 1002.07 1002.25 1002.47 1002.63 1002.81 1003.03 1003.21 1003.47 1003.65 1003.79 1003.93 1004.19 1004.43 1004.65 1004.91 1005.13 1005.35 1005.59 1005.81 1006.03 1006.25 1006.43 1006.63 1006.85 1007.03 1007.25 1007.43 1007.63 1007.79 1007.97 1008.19 1008.41 1008.63 1008.85 1009.03 1009.29 1009.51 1009.69 1009.85 1009.97 1010.09 1010.19 1010.31 1010.51 1010.65 1010.81 1010.93 1011.13 1011.21
998.25 998.51 998.75 998.91 999.07 999.25 999.47 999.69 999.91 1000.13 1000.31 1000.51 1000.65 1000.87 1001.09 1001.31 1001.51 1001.65 1001.81 1001.93 1002.09 1002.25 1002.47 1002.65 1002.87 1003.07 1003.25 1003.43 1003.65 1003.81 1003.97 1004.19 1004.41 1004.63 1004.87 1005.09 1005.31 1005.51 1005.69 1005.91 1006.15 1006.37 1006.57 1006.75 1006.93 1007.15 1007.37 1007.57 1007.75 1007.97 1008.19 1008.43 1008.65 1008.87 1009.07 1009.29 1009.47 1009.63 1009.75 1009.85 1009.93 1010.07 1010.19 1010.35 1010.57 1010.81 1011.03 1011.19 1011.31
998.37 998.63 998.81 998.99 999.15 999.35 999.53 999.75 999.93 1000.19 1000.41 1000.63 1000.79 1000.97 1001.13 1001.31 1001.51 1001.69 1001.85 1001.99 1002.15 1002.31 1002.51 1002.69 1002.91 1003.13 1003.31 1003.51 1003.71 1003.91 1004.07 1004.25 1004.43 1004.65 1004.87 1005.07 1005.25 1005.43 1005.65 1005.85 1006.09 1006.31 1006.47 1006.65 1006.91 1007.09 1007.31 1007.47 1007.65 1007.87 1008.13 1008.35 1008.59 1008.85 1009.09 1009.29 1009.47 1009.59 1009.65 1009.71 1009.81 1009.91 1010.03 1010.25 1010.51 1010.75 1010.99 1011.21 1011.37
998.65 998.81 998.93 999.07 999.25 999.47 999.63 999.79 999.97 1000.19 1000.47 1000.75 1000.93 1001.03 1001.13 1001.29 1001.47 1001.65 1001.85 1002.03 1002.19 1002.41 1002.59 1002.75 1002.93 1003.13 1003.31 1003.53 1003.75 1003.97 1004.15 1004.31 1004.47 1004.65 1004.87 1005.03 1005.21 1005.41 1005.57 1005.79 1005.99 1006.21 1006.41 1006.59 1006.81 1006.99 1007.19 1007.31 1007.51 1007.71 1007.93 1008.19 1008.47 1008.75 1009.07 1009.31 1009.47 1009.53 1009.53 1009.57 1009.69 1009.81 1009.93 1010.15 1010.41 1010.65 1010.91 1011.13 1011.31
999.43 999.43 999.37 999.31 999.41 999.57 999.75 999.87 1000.03 1000.25 1000.53 1000.81 1000.99 1001.13 1001.15 1001.29 1001.47 1001.65 1001.85 1002.03 1002.21 1002.41 1002.59 1002.75 1002.91 1003.09 1003.25 1003.47 1003.69 1003.91 1004.15 1004.35 1004.51 1004.65 1004.85 1004.99 1005.15 1005.35 1005.53 1005.71 1005.91 1006.13 1006.31 1006.51 1006.65 1006.85 1007.03 1007.21 1007.37 1007.57 1007.79 1007.99 1008.31 1008.63 1008.93 1009.21 1009.35 1009.37 1009.41 1009.51 1009.65 1009.81 1009.99 1010.19 1010.37 1010.59 1010.81 1010.99 1011.21
999.81 999.85 999.87 999.85 999.81 999.81 999.91 1000.03 1000.19 1000.41 1000.65 1000.91 1001.09 1001.21 1001.25 1001.25 1001.47 1001.69 1001.87 1002.07 1002.21 1002.37 1002.53 1002.69 1002.85 1002.99 1003.19 1003.37 1003.59 1003.81 1004.03 1004.29 1004.51 1004.65 1004.79 1004.97 1005.15 1005.31 1005.51 1005.69 1005.87 1006.03 1006.19 1006.35 1006.51 1006.69 1006.87 1007.09 1007.31 1007.51 1007.71 1007.91 1008.15 1008.43 1008.71 1008.97 1009.09 1009.19 1009.29 1009.47 1009.65 1009.87 1010.09 1010.21 1010.41 1010.57 1010.79 1010.97 1011.19
1000.25 1000.31 1000.41 1000.43 1000.43 1000.47 1000.51 1000.51 1000.59 1000.71 1000.87 1001.07 1001.25 1001.31 1001.35 1001.35 1001.51 1001.71 1001.91 1002.03 1002.21 1002.37 1002.51 1002.65 1002.79 1002.93 1003.13 1003.37 1003.57 1003.71 1003.91 1004.13 1004.41 1004.63 1004.79 1004.97 1005.15 1005.31 1005.47 1005.65 1005.85 1005.99 1006.09 1006.21 1006.35 1006.51 1006.69 1006.93 1007.21 1007.47 1007.69 1007.87 1008.03 1008.25 1008.51 1008.71 1008.93 1009.09 1009.25 1009.47 1009.69 1009.93 1010.13 1010.29 1010.43 1010.59 1010.81 1011.03 1011.25
1000.81 1000.87 1000.93 1000.97 1000.93 1000.93 1000.97 1000.99 1001.15 1001.35 1001.47 1001.51 1001.53 1001.53 1001.53 1001.53 1001.65 1001.85 1001.99 1002.15 1002.29 1002.41 1002.53 1002.69 1002.79 1002.93 1003.15 1003.37 1003.53 1003.69 1003.85 1004.07 1004.31 1004.59 1004.85 1005.07 1005.21 1005.35 1005.51 1005.69 1005.85 1005.97 1006.07 1006.21 1006.31 1006.43 1006.59 1006.79 1007.03 1007.29 1007.53 1007.75 1007.93 1008.13 1008.35 1008.59 1008.85 1009.03 1009.21 1009.43 1009.69 1009.93 1010.19 1010.37 1010.53 1010.71 1010.91 1011.13 1011.37
1001.31 1001.37 1001.43 1001.43 1001.37 1001.31 1001.31 1001.43 1001.59 1001.79 1001.93 1002.03 1002.09 1002.07 1001.97 1001.91 1001.91 1001.99 1002.15 1002.35 1002.51 1002.63 1002.75 1002.85 1002.93 1003.03 1003.19 1003.37 1003.57 1003.75 1003.91 1004.09 1004.31 1004.57 1004.81 1004.99 1005.19 1005.35 1005.47 1005.63 1005.81 1005.97 1006.09 1006.21 1006.35 1006.47 1006.63 1006.79 1006.99 1007.19 1007.37 1007.59 1007.85 1008.09 1008.35 1008.59 1008.85 1009.07 1009.21 1009.43 1009.71 1009.97 1010.19 1010.43 1010.69 1010.87 1011.07 1011.25 1011.47
1001.79 1001.81 1001.85 1001.79 1001.71 1001.75 1001.85 1001.93 1002.07 1002.21 1002.41 1002.53 1002.59 1002.59 1002.53 1002.47 1002.41 1002.41 1002.51 1002.65 1002.79 1002.91 1002.97 1003.07 1003.13 1003.19 1003.31 1003.47 1003.65 1003.81 1003.97 1004.15 1004.41 1004.59 1004.75 1004.91 1005.03 1005.19 1005.37 1005.53 1005.71 1005.91 1006.07 1006.21 1006.35 1006.51 1006.65 1006.85 1007.09 1007.29 1007.43 1007.63 1007.85 1008.07 1008.31 1008.59 1008.87 1009.13 1009.35 1009.57 1009.79 1009.97 1010.15 1010.43 1010.65 1010.91 1011.13 1011.35 1011.57
1002.37 1002.37 1002.35 1002.31 1002.35 1002.41 1002.47 1002.51 1002.63 1002.79 1002.91 1003.03 1003.09 1003.09 1003.03 1002.99 1002.99 1003.03 1003.09 1003.19 1003.25 1003.31 1003.35 1003.41 1003.41 1003.41 1003.47 1003.59 1003.75 1003.91 1004.09 1004.29 1004.51 1004.65 1004.81 1004.91 1005.03 1005.15 1005.29 1005.47 1005.65 1005.81 1005.97 1006.13 1006.25 1006.41 1006.57 1006.81 1007.07 1007.31 1007.57 1007.79 1007.93 1008.09 1008.29 1008.59 1008.93 1009.25 1009.51 1009.69 1009.87 1009.99 1010.15 1010.37 1010.59 1010.85 1011.13 1011.37 1011.57
1002.97 1002.97 1002.97 1002.99 1003.09 1003.13 1003.19 1003.21 1003.31 1003.41 1003.47 1003.51 1003.53 1003.47 1003.43 1003.41 1003.47 1003.57 1003.65 1003.75 1003.85 1003.85 1003.81 1003.75 1003.75 1003.71 1003.75 1003.85 1003.93 1004.07 1004.21 1004.41 1004.57 1004.75 1004.93 1005.13 1005.21 1005.35 1005.41 1005.53 1005.63 1005.75 1005.87 1006.03 1006.13 1006.25 1006.43 1006.71 1006.99 1007.31 1007.59 1007.85 1008.03 1008.21 1008.43 1008.75 1009.03 1009.31 1009.57 1009.79 1009.91 1010.07 1010.19 1010.37 1010.59 1010.85 1011.07 1011.29 1011.57
1003.57 1003.53 1003.57 1003.63 1003.71 1003.81 1003.87 1003.97 1004.03 1004.07 1004.07 1004.07 1003.99 1003.91 1003.87 1003.91 1003.99 1004.09 1004.19 1004.29 1004.35 1004.35 1004.29 1004.19 1004.13 1004.13 1004.15 1004.19 1004.19 1004.29 1004.41 1004.57 1004.65 1004.81 1005.03 1005.21 1005.41 1005.53 1005.59 1005.65 1005.71 1005.79 1005.87 1005.97 1006.03 1006.19 1006.41 1006.69 1006.97 1007.29 1007.57 1007.85 1008.07 1008.31 1008.57 1008.85 1009.09 1009.35 1009.57 1009.79 1009.91 1010.03 1010.15 1010.37 1010.57 1010.79 1010.99 1011.29 1011.57
1004.15 1004.13 1004.13 1004.19 1004.25 1004.35 1004.41 1004.43 1004.47 1004.47 1004.51 1004.51 1004.51 1004.47 1004.47 1004.53 1004.59 1004.69 1004.71 1004.75 1004.79 1004.79 1004.75 1004.69 1004.59 1004.59 1004.63 1004.63 1004.63 1004.65 1004.69 1004.79 1004.87 1004.97 1005.09 1005.25 1005.43 1005.57 1005.69 1005.79 1005.81 1005.85 1005.87 1005.97 1006.03 1006.21 1006.43 1006.69 1006.97 1007.29 1007.59 1007.85 1008.07 1008.31 1008.57 1008.81 1009.03 1009.25 1009.47 1009.69 1009.87 1010.03 1010.21 1010.41 1010.63 1010.85 1011.09 1011.37 1011.65
1004.69 1004.65 1004.69 1004.69 1004.79 1004.81 1004.85 1004.85 1004.87 1004.87 1004.87 1004.91 1004.93 1004.99 1005.07 1005.13 1005.21 1005.25 1005.25 1005.25 1005.25 1005.19 1005.15 1005.09 1005.07 1005.07 1005.07 1005.03 1005.03 1005.03 1005.07 1005.13 1005.19 1005.25 1005.35 1005.43 1005.59 1005.69 1005.75 1005.85 1005.87 1005.91 1005.97 1006.03 1006.15 1006.31 1006.53 1006.79 1007.07 1007.37 1007.65 1007.87 1008.09 1008.35 1008.59 1008.85 1009.07 1009.31 1009.53 1009.75 1009.93 1010.09 1010.29 1010.51 1010.75 1010.97 1011.19 1011.43 1011.69
1005.21 1005.19 1005.19 1005.21 1005.25 1005.29 1005.29 1005.29 1005.29 1005.31 1005.31 1005.31 1005.35 1005.41 1005.47 1005.57 1005.65 1005.69 1005.71 1005.71 1005.69 1005.65 1005.59 1005.59 1005.53 1005.51 1005.47 1005.43 1005.43 1005.43 1005.43 1005.47 1005.51 1005.57 1005.65 1005.71 1005.79 1005.85 1005.91 1005.93 1006.03 1006.09 1006.15 1006.21 1006.35 1006.51 1006.71 1006.93 1007.21 1007.51 1007.75 1007.99 1008.25 1008.51 1008.75 1008.97 1009.21 1009.43 1009.69 1009.87 1010.07 1010.21 1010.37 1010.57 1010.79 1011.07 1011.29 1011.51 1011.69
1005.69 1005.65 1005.63 1005.65 1005.71 1005.71 1005.69 1005.69 1005.65 1005.65 1005.63 1005.65 1005.75 1005.81 1005.87 1005.93 1005.99 1006.03 1006.07 1006.09 1006.07 1006.03 1005.99 1005.99 1005.97 1005.97 1005.91 1005.85 1005.81 1005.79 1005.79 1005.79 1005.85 1005.91 1005.97 1005.99 1006.07 1006.09 1006.15 1006.21 1006.31 1006.35 1006.41 1006.47 1006.59 1006.75 1006.93 1007.15 1007.37 1007.63 1007.91 1008.15 1008.43 1008.69 1008.93 1009.19 1009.41 1009.63 1009.85 1010.03 1010.21 1010.35 1010.51 1010.69 1010.91 1011.13 1011.35 1011.53 1011.69
1006.13 1006.09 1006.07 1006.07 1006.07 1006.03 1006.03 1005.99 1005.93 1005.91 1005.91 1005.97 1006.03 1006.13 1006.19 1006.25 1006.29 1006.35 1006.37 1006.35 1006.31 1006.31 1006.29 1006.31 1006.31 1006.31 1006.31 1006.25 1006.19 1006.13 1006.09 1006.09 1006.15 1006.21 1006.29 1006.29 1006.31 1006.37 1006.47 1006.57 1006.63 1006.69 1006.75 1006.79 1006.91 1007.03 1007.21 1007.41 1007.63 1007.87 1008.13 1008.37 1008.63 1008.87 1009.13 1009.35 1009.57 1009.79 1009.97 1010.13 1010.31 1010.51 1010.65 1010.85 1011.03 1011.21 1011.37 1011.53 1011.69
1006.63 1006.57 1006.53 1006.47 1006.43 1006.37 1006.35 1006.31 1006.29 1006.21 1006.21 1006.25 1006.31 1006.37 1006.43 1006.51 1006.53 1006.57 1006.59 1006.57 1006.53 1006.51 1006.53 1006.59 1006.63 1006.63 1006.59 1006.59 1006.53 1006.47 1006.41 1006.41 1006.43 1006.47 1006.53 1006.57 1006.65 1006.71 1006.81 1006.93 1006.99 1007.07 1007.13 1007.19 1007.31 1007.41 1007.53 1007.69 1007.87 1008.09 1008.31 1008.57 1008.81 1009.07 1009.25 1009.47 1009.71 1009.93 1010.13 1010.29 1010.43 1010.59 1010.79 1010.93 1011.13 1011.31 1011.47 1011.59 1011.79
1007.15 1007.07 1006.97 1006.93 1006.87 1006.81 1006.79 1006.71 1006.65 1006.63 1006.63 1006.65 1006.69 1006.71 1006.75 1006.79 1006.79 1006.81 1006.81 1006.81 1006.79 1006.79 1006.81 1006.87 1006.91 1006.91 1006.91 1006.91 1006.87 1006.81 1006.79 1006.71 1006.71 1006.75 1006.81 1006.91 1006.99 1007.09 1007.19 1007.29 1007.41 1007.51 1007.53 1007.63 1007.69 1007.79 1007.91 1008.03 1008.15 1008.31 1008.47 1008.71 1008.93 1009.19 1009.41 1009.63 1009.87 1010.09 1010.29 1010.47 1010.65 1010.81 1010.93 1011.07 1011.25 1011.43 1011.59 1011.71 1011.87
1007.63 1007.53 1007.43 1007.37 1007.31 1007.25 1007.21 1007.13 1007.09 1007.09 1007.09 1007.13 1007.15 1007.15 1007.15 1007.15 1007.15 1007.15 1007.19 1007.15 1007.15 1007.15 1007.19 1007.21 1007.21 1007.25 1007.25 1007.25 1007.21 1007.19 1007.15 1007.09 1007.07 1007.07 1007.13 1007.25 1007.35 1007.41 1007.51 1007.63 1007.75 1007.85 1007.91 1007.99 1008.03 1008.13 1008.25 1008.35 1008.43 1008.53 1008.63 1008.81 1009.03 1009.25 1009.51 1009.79 1010.03 1010.25 1010.43 1010.69 1010.85 1010.99 1011.15 1011.29 1011.43 1011.59 1011.75 1011.85 1011.99
1008.13 1008.03 1007.91 1007.85 1007.75 1007.69 1007.63 1007.57 1007.59 1007.59 1007.59 1007.57 1007.57 1007.59 1007.57 1007.57 1007.57 1007.59 1007.59 1007.57 1007.57 1007.57 1007.57 1007.57 1007.57 1007.59 1007.59 1007.59 1007.57 1007.57 1007.53 1007.51 1007.43 1007.41 1007.47 1007.57 1007.65 1007.75 1007.85 1007.91 1008.07 1008.15 1008.21 1008.29 1008.31 1008.37 1008.47 1008.57 1008.65 1008.75 1008.81 1008.93 1009.15 1009.35 1009.59 1009.87 1010.13 1010.37 1010.63 1010.85 1011.07 1011.25 1011.37 1011.51 1011.63 1011.75 1011.91 1012.03 1012.13
1008.59 1008.47 1008.37 1008.31 1008.21 1008.15 1008.09 1008.03 1008.07 1008.07 1008.03 1008.03 1007.99 1007.99 1007.99 1007.99 1007.99 1007.99 1007.97 1007.93 1007.93 1007.93 1007.93 1007.91 1007.91 1007.91 1007.91 1007.87 1007.91 1007.91 1007.93 1007.93 1007.87 1007.85 1007.85 1007.87 1007.93 1008.03 1008.13 1008.21 1008.35 1008.43 1008.47 1008.51 1008.51 1008.57 1008.65 1008.75 1008.85 1008.91 1008.99 1009.15 1009.35 1009.53 1009.75 1009.97 1010.21 1010.53 1010.79 1010.97 1011.19 1011.41 1011.57 1011.69 1011.79 1011.87 1011.99 1012.15 1012.25
1008.97 1008.87 1008.79 1008.75 1008.65 1008.59 1008.57 1008.51 1008.51 1008.47 1008.43 1008.43 1008.41 1008.41 1008.37 1008.37 1008.35 1008.31 1008.29 1008.29 1008.25 1008.25 1008.29 1008.25 1008.21 1008.21 1008.19 1008.15 1008.19 1008.25 1008.31 1008.35 1008.31 1008.25 1008.21 1008.21 1008.21 1008.29 1008.37 1008.51 1008.63 1008.65 1008.69 1008.71 1008.71 1008.75 1008.81 1008.91 1008.99 1009.07 1009.19 1009.37 1009.57 1009.71 1009.91 1010.13 1010.37 1010.65 1010.91 1011.13 1011.29 1011.43 1011.63 1011.75 1011.87 1011.97 1012.09 1012.19 1012.35
Wind_Speed
13 12 11 10 10 9 8 7 7 6 6 6 6 7 8 8 10 8 6 6 7 8 8 8 9 9 10 13 14 14 13 13 12 11 11 12 13 13 12 11 11 10 9 8 7 7 7 8 7 6 5 6 7 7 7 6 8 9 9 8 7 7 8 9 9 9 10 9 8
13 13 12 11 10 9 8 7 7 7 6 6 6 7 8 8 8 7 5 6 7 8 8 8 9 11 13 14 14 14 14 14 13 12 11 11 12 12 11 10 11 11 11 11 9 8 7 8 7 6 5 5 6 7 7 7 8 9 10 10 8 7 7 8 9 9 10 9 8
13 13 13 12 11 10 9 8 7 8 8 7 7 7 7 8 6 5 5 6 8 8 9 9 10 11 13 14 13 12 13 13 13 12 10 9 10 10 10 10 11 12 12 11 10 9 8 8 7 6 6 6 6 7 7 7 7 8 9 10 7 6 6 6 8 8 8 7 7
14 14 13 12 13 13 11 8 8 8 8 7 7 7 7 6 5 5 5 8 9 10 9 10 10 10 11 12 12 12 12 13 14 12 10 9 9 10 10 10 11 11 12 11 11 10 9 9 7 6 6 7 8 8 7 7 7 8 8 8 6 6 6 6 6 6 6 6 7
13 13 12 11 13 13 11 9 9 9 7 6 6 6 6 6 5 5 6 8 9 9 10 12 11 10 10 11 12 12 12 13 13 12 10 10 9 9 9 9 10 11 11 11 11 11 11 10 7 6 6 7 7 7 8 8 9 8 6 5 5 5 6 6 6 6 6 5 6
11 12 12 11 13 13 11 9 10 9 7 6 6 7 6 6 5 6 7 9 10 11 13 13 12 11 11 12 14 13 13 12 12 11 11 11 11 10 10 10 10 10 10 11 12 12 11 11 7 6 6 6 7 7 8 10 9 8 7 6 5 5 6 7 6 6 6 6 7
11 12 13 13 14 13 12 10 10 9 7 6 7 8 7 7 6 7 8 10 11 12 12 12 12 13 13 15 15 15 13 12 11 12 13 12 12 12 12 11 10 10 10 10 11 11 11 10 7 6 6 6 6 7 9 10 9 9 8 7 6 6 6 8 6 6 7 10 10
11 12 14 15 15 14 13 12 10 9 8 6 7 8 8 8 8 8 8 9 10 11 11 11 13 15 16 16 16 16 15 15 13 13 13 13 14 14 13 12 11 10 10 10 10 11 10 9 7 7 7 6 6 7 9 10 10 10 9 9 7 6 6 6 7 7 9 11 12
10 12 14 16 15 14 13 12 11 10 9 7 8 8 8 8 8 8 8 8 9 10 11 11 13 15 16 17 17 17 16 16 16 15 14 13 14 15 14 13 13 12 11 10 10 11 11 9 7 7 7 6 6 7 9 11 12 11 11 9 8 7 7 6 8 9 10 12 13
10 12 14 16 15 14 13 12 12 11 10 9 9 9 8 8 8 8 8 7 8 9 10 11 13 14 15 16 16 16 16 16 16 16 15 14 15 16 16 15 15 15 13 12 11 11 11 9 8 7 7 7 8 9 10 12 12 12 11 8 8 9 9 7 8 10 10 11 12
11 13 14 15 13 12 12 12 11 10 10 10 10 10 9 8 8 8 8 7 9 10 11 11 13 14 14 14 14 14 14 14 15 16 16 16 16 16 17 17 17 17 16 15 12 11 10 9 9 9 9 8 9 10 11 12 12 12 11 8 9 10 10 9 9 9 10 10 12
12 13 14 14 12 11 11 11 10 9 9 10 11 11 10 9 9 9 9 9 11 11 11 12 13 14 14 13 13 13 13 13 14 15 16 16 17 17 17 17 17 18 17 17 13 11 9 9 10 10 11 10 9 9 11 12 12 12 11 10 10 11 11 11 10 9 8 9 10
13 14 14 13 11 11 11 11 10 9 9 10 11 11 10 9 10 10 10 11 11 10 10 11 13 14 14 13 13 13 13 13 14 15 15 16 16 16 16 16 17 17 17 15 13 11 10 10 11 12 12 11 9 9 11 13 12 12 12 11 11 11 11 11 10 9 8 9 9
14 14 14 12 11 11 10 10 9 8 9 10 10 10 9 9 9 10 10 11 11 10 10 10 11 12 12 13 13 13 14 13 15 15 16 15 15 15 15 15 15 15 15 13 13 12 12 11 12 13 13 13 11 11 12 13 12 12 12 13 12 12 11 10 9 9 9 9 9
15 14 13 12 12 11 9 9 8 8 9 10 9 9 9 8 9 9 10 10 10 10 9 10 10 10 11 12 13 14 14 14 15 16 16 15 15 15 15 14 14 14 13 12 12 12 13 13 13 13 13 13 12 12 12 12 12 12 12 13 13 12 11 9 8 8 9 10 9
14 13 12 12 12 11 9 8 7 7 8 9 9 9 8 7 8 9 9 10 10 9 9 10 10 10 10 11 13 13 14 14 15 15 15 15 15 15 15 14 14 14 13 13 12 12 12 13 13 13 13 13 13 12 12 12 12 11 11 11 11 10 9 8 7 8 9 10 9
13 11 11 11 12 11 10 8 7 7 7 8 9 9 8 7 7 8 9 10 9 9 10 10 9 9 10 11 11 12 13 13 14 14 14 15 15 15 15 15 14 14 14 13 13 12 12 12 12 13 13 13 13 12 12 11 11 10 10 10 9 8 7 7 7 7 8 9 10
11 10 10 10 11 11 11 10 8 8 8 9 9 9 8 8 8 8 9 10 10 10 11 11 10 9 10 10 10 10 11 12 13 13 13 14 15 15 15 15 15 14 14 14 14 13 13 13 12 12 12 12 12 11 11 10 10 9 9 9 8 8 7 7 7 7 7 7 9
10 10 9 9 9 10 10 11 10 9 9 8 9 9 10 9 9 9 9 9 10 11 11 11 10 10 10 11 10 10 10 11 13 13 13 14 14 14 14 15 14 14 14 14 14 13 13 13 12 12 12 11 10 10 9 8 8 8 8 8 8 8 8 8 7 7 7 7 7
10 10 10 8 8 8 9 11 11 10 9 7 8 10 11 11 11 10 10 10 11 11 12 12 11 11 11 12 11 10 10 10 12 13 13 13 13 14 14 14 14 14 14 13 13 13 13 12 12 12 11 11 10 9 8 7 7 7 7 8 8 9 9 9 8 8 8 8 8
6 6 7 7 8 8 8 9 10 10 9 7 7 9 11 12 11 11 11 11 11 11 12 12 12 12 12 13 12 11 10 9 11 12 12 12 12 12 12 12 13 13 12 12 12 12 12 12 12 11 11 10 10 9 8 7 7 7 7 7 7 8 9 9 9 9 9 9 9
5 4 3 2 5 7 8 9 9 9 8 7 6 7 9 11 11 11 10 10 11 11 11 11 11 12 12 13 13 12 10 8 9 10 10 10 10 10 10 10 11 11 11 11 11 11 11 11 11 11 11 10 10 10 9 9 8 8 8 8 8 8 8 8 8 8 8 8 8
12 12 11 9 6 4 5 6 7 7 8 7 5 5 6 8 8 9 9 9 9 10 10 10 10 10 11 11 11 11 10 9 8 8 8 8 8 8 8 8 9 10 10 10 10 10 11 10 11 11 10 10 11 11 11 10 9 9 9 9 8 8 8 7 7 7 7 7 7
15 14 13 11 12 11 9 7 7 7 7 6 5 4 5 7 7 7 7 7 7 8 8 7 8 8 9 9 9 9 10 9 9 8 8 7 7 7 8 8 8 9 9 8 9 10 10 10 10 10 10 10 10 11 10 10 9 9 9 10 9 8 8 7 7 7 6 6 6
16 15 14 13 14 14 14 15 14 13 11 9 7 5 5 6 7 7 6 6 6 6 6 6 7 7 7 7 7 8 9 9 9 9 9 8 8 8 8 8 8 8 7 7 9 11 11 10 9 9 10 10 10 9 9 9 9 9 9 10 10 9 8 7 7 7 6 6 6
16 16 15 15 15 16 16 16 16 15 14 13 11 9 7 6 6 7 7 7 6 5 5 5 6 6 6 6 7 7 8 9 9 9 9 9 9 9 9 8 8 7 6 7 10 12 12 12 10 9 9 9 9 9 9 8 9 9 9 10 10 9 9 8 8 7 6 6 5
17 17 16 16 17 17 17 16 16 15 15 14 13 12 11 10 8 7 7 7 6 5 4 4 5 5 6 6 7 7 8 7 8 8 8 8 9 10 10 9 8 7 7 9 12 13 13 13 11 10 9 8 8 8 8 8 8 8 8 9 9 9 10 10 9 8 7 6 6
17 17 18 18 18 18 17 16 16 15 14 14 13 13 13 13 12 11 10 8 7 5 4 3 3 3 4 5 6 7 7 7 7 6 6 7 8 9 9 9 8 8 8 12 14 15 15 14 13 12 10 8 7 7 8 8 8 7 7 7 8 9 9 10 9 9 8 8 7
17 17 18 18 18 17 16 16 15 14 13 13 13 13 14 14 14 13 12 11 9 7 5 3 3 3 3 4 5 6 6 6 6 6 5 5 6 6 7 7 8 8 10 13 15 16 16 15 15 14 12 10 7 6 6 7 7 7 6 6 7 8 8 8 8 9 9 9 8
17 17 17 17 16 16 15 14 14 13 12 12 13 14 14 14 14 13 12 12 10 8 6 5 4 4 4 4 4 4 5 5 5 6 6 7 6 5 5 5 5 7 9 13 15 16 16 16 16 15 14 12 9 7 7 7 7 7 6 6 7 8 8 9 9 10 9 9 9
16 16 16 16 16 15 14 13 13 13 12 12 13 13 14 13 13 12 11 11 9 8 8 8 7 7 6 5 4 4 4 4 5 6 6 7 7 6 5 5 5 5 7 11 13 14 15 15 16 16 15 14 10 8 7 7 7 7 7 7 8 9 9 9 10 10 11 10 10
16 16 16 16 15 15 14 13 13 13 13 13 13 13 13 12 11 11 10 9 9 9 9 9 9 8 8 7 6 6 5 5 5 5 5 6 6 6 5 6 5 6 8 11 13 14 14 15 16 16 15 14 10 9 8 8 8 7 8 9 10 10 10 9 10 11 11 11 10
16 16 15 15 15 14 14 13 13 13 13 13 13 13 12 11 10 10 9 8 8 9 9 9 9 8 8 7 7 7 7 6 6 6 6 6 6 6 6 6 5 6 9 12 13 14 15 16 16 16 15 14 10 9 8 8 7 7 8 9 9 10 11 11 11 11 11 11 10
16 15 15 15 14 13 13 13 12 12 13 13 13 12 12 11 10 10 9 7 7 7 7 7 7 7 6 6 6 6 7 7 7 7 6 6 6 6 6 5 4 5 9 12 14 15 16 16 17 16 15 13 10 8 8 9 8 8 8 9 9 9 10 10 11 11 10 10 9
15 15 15 14 13 13 13 13 12 12 13 13 12 12 11 11 10 9 8 7 7 7 7 7 6 6 6 6 6 7 7 8 8 7 7 7 7 7 7 6 5 7 9 12 14 15 16 17 17 17 15 12 9 8 9 9 9 9 9 10 9 9 10 10 9 9 9 9 9
15 14 14 14 13 13 13 13 13 13 13 13 12 12 11 10 10 9 8 7 7 8 8 7 7 7 6 6 6 6 7 8 8 8 8 8 8 9 8 8 8 9 11 13 14 15 16 17 17 16 14 10 8 8 8 8 8 9 9 10 9 9 9 9 8 8 8 8 9
15 14 14 13 13 13 13 12 13 13 13 12 12 11 11 10 9 8 8 7 8 8 8 7 7 7 7 7 6 6 6 7 8 8 8 8 9 9 9 9 9 9 11 13 14 15 15 16 16 15 12 9 8 7 8 7 7 8 8 9 8 8 8 8 8 8 8 8 9
14 14 13 13 13 12 12 12 12 12 12 12 11 10 10 9 9 8 8 7 7 7 7 7 7 7 7 7 7 7 7 7 8 9 9 9 9 9 9 9 9 9 10 12 14 14 15 15 14 13 11 9 8 8 7 7 7 7 7 7 7 7 6 6 6 6 7 8 9
14 13 13 13 12 12 12 12 12 12 11 10 10 10 9 9 8 7 7 7 6 6 6 7 7 7 7 7 7 7 7 7 7 8 9 9 8 8 9 9 8 8 9 12 14 14 14 14 14 13 11 9 8 7 7 7 7 7 7 7 6 6 6 5 5 5 6 8 11
13 12 12 12 12 11 11 11 11 10 9 9 9 9 8 8 7 6 6 6 6 6 6 6 6 6 6 7 7 7 7 7 7 7 8 8 8 9 9 8 8 8 9 12 13 14 14 14 14 13 11 8 7 6 6 7 7 7 7 6 6 6 5 5 5 5 6 7 10
12 12 12 11 11 11 11 10 10 9 9 8 8 7 6 6 6 6 6 6 6 6 5 6 6 7 7 6 6 7 7 7 6 6 7 8 8 8 8 8 7 7 8 10 12 13 14 14 14 13 11 8 6 6 6 6 7 7 7 6 6 6 5 5 4 4 5 5 6
Wind_Direction
213 212 213 214 213 212 210 207 204 201 200 199 201 201 202 204 204 199 185 165 159 155 152 150 149 147 147 150 152 153 152 152 152 154 158 163 165 165 163 164 167 172 178 184 188 190 188 182 177 175 176 179 181 181 181 180 178 178 179 180 180 179 178 180 183 184 183 183 186
212 210 210 211 210 208 204 200 197 195 195 196 198 197 196 197 196 190 173 158 153 148 145 144 144 144 145 148 150 151 152 153 152 152 155 160 165 166 165 166 170 175 179 183 188 192 193 185 178 175 175 177 178 180 182 181 177 176 178 180 179 178 179 183 187 187 186 185 186
216 211 208 209 212 209 203 194 190 188 189 192 193 192 189 188 185 175 160 151 143 139 137 138 140 142 143 146 148 151 153 154 153 153 154 157 162 165 167 168 172 177 180 182 187 191 193 187 181 176 175 176 177 179 180 180 176 176 178 180 178 177 179 186 189 189 187 188 185
219 215 211 211 213 208 198 185 181 180 180 183 185 183 179 173 169 161 149 141 137 135 136 138 139 142 145 147 149 153 157 160 160 157 155 157 160 162 164 167 172 176 179 182 187 191 192 187 183 179 177 176 177 179 179 177 176 176 178 179 176 177 181 188 188 188 188 189 187
217 216 214 213 209 201 190 178 175 173 174 174 174 171 166 159 158 153 146 140 139 137 136 138 141 147 152 155 157 159 161 164 164 162 160 163 164 163 164 167 171 174 178 181 187 190 189 185 184 181 179 178 180 181 179 174 174 175 175 175 176 179 183 187 187 187 187 187 188
216 216 215 214 203 194 184 175 171 170 170 170 168 163 158 153 155 153 148 141 137 134 134 138 145 154 164 171 175 174 170 162 162 164 167 169 170 171 171 172 173 174 176 182 187 188 187 184 184 183 182 180 183 181 177 172 172 171 172 173 178 182 184 187 187 186 184 184 185
215 214 213 211 200 190 180 171 169 169 169 169 164 158 152 149 154 151 145 137 135 135 137 141 150 159 167 176 183 184 180 170 167 169 172 175 177 179 180 180 177 176 177 182 186 188 187 184 183 183 182 181 182 179 176 172 170 170 171 175 179 183 185 188 185 183 183 183 182
213 213 211 207 197 186 176 168 167 169 172 171 162 154 149 148 151 148 141 136 138 141 144 147 155 160 165 170 176 178 177 173 172 173 176 179 183 186 187 186 184 183 183 184 187 188 188 185 184 183 182 181 180 178 175 172 169 170 173 176 179 183 186 187 184 183 183 182 181
212 212 209 203 192 181 172 166 167 169 170 168 160 154 149 147 149 148 145 143 145 147 150 154 159 162 164 168 171 173 173 173 173 174 178 182 185 188 189 190 191 192 192 192 191 189 187 185 185 183 181 179 177 175 173 171 170 172 174 176 178 182 186 186 184 183 183 182 181
214 213 209 202 189 177 168 165 167 168 167 163 158 154 150 149 152 154 154 151 150 153 157 161 162 164 167 169 171 172 173 173 173 174 177 181 185 187 189 191 193 195 196 197 194 190 186 183 183 181 179 177 174 172 172 172 172 173 175 176 177 180 183 186 184 183 182 182 182
218 214 208 198 183 171 164 165 168 169 166 161 157 155 154 155 157 160 159 155 155 160 164 165 166 168 170 173 174 175 174 174 174 174 176 180 184 187 189 190 192 194 195 197 194 189 184 181 179 176 175 173 170 170 171 173 173 174 174 175 175 178 180 184 184 183 183 182 181
219 212 204 193 176 166 163 167 172 171 166 159 157 157 158 160 161 160 158 155 159 162 166 167 169 172 174 176 177 177 177 176 175 175 176 181 184 186 188 189 189 191 192 194 191 187 181 178 175 172 171 169 169 169 171 172 172 172 172 173 175 177 180 182 183 183 182 179 178
216 208 199 186 170 163 163 166 170 170 165 158 157 157 158 160 159 157 156 156 158 161 164 167 170 173 175 177 177 177 178 179 179 179 180 183 184 184 184 185 185 186 187 187 186 183 179 176 172 170 169 168 169 170 170 170 170 170 171 172 175 178 180 180 180 179 177 175 175
210 201 190 174 166 162 162 163 166 165 162 157 155 155 156 157 157 156 155 156 157 158 161 164 168 171 173 173 173 174 175 177 178 179 180 182 182 181 181 180 180 180 180 180 179 178 176 174 172 170 169 168 168 168 169 169 170 170 171 173 176 178 179 177 176 173 171 172 172
201 192 179 165 163 161 159 157 159 159 158 155 153 152 152 154 155 155 155 156 157 157 159 162 166 168 169 168 168 168 170 171 173 175 176 177 178 178 177 176 175 174 174 173 174 174 174 172 171 170 169 168 167 166 167 169 170 171 172 174 175 175 173 172 172 171 170 169 168
190 178 165 159 161 159 155 153 153 154 154 154 151 149 149 151 154 155 155 156 156 157 159 162 163 166 168 168 165 164 165 167 169 171 172 173 173 174 173 173 172 170 169 168 170 171 172 171 170 169 168 166 165 164 165 166 167 169 170 170 169 166 164 164 168 170 170 167 166
172 163 156 155 155 154 152 150 148 149 151 151 149 148 148 150 154 156 157 156 155 157 159 160 160 163 168 172 168 164 163 164 167 168 170 170 170 170 171 171 170 168 167 166 167 168 169 169 168 167 165 164 162 161 161 162 162 164 165 165 163 160 158 159 165 168 168 166 167
158 156 156 154 150 148 148 148 145 145 146 148 148 149 149 151 155 157 157 155 155 156 157 157 156 158 163 167 167 165 164 165 167 168 169 169 169 169 169 169 169 168 167 167 167 167 166 166 165 163 162 161 160 159 159 158 160 162 164 165 164 162 161 163 170 173 173 171 170
152 157 160 155 148 145 145 147 145 143 143 145 149 151 151 153 154 155 155 155 155 155 155 155 155 156 159 161 164 165 166 167 168 169 169 169 168 168 168 168 168 168 168 167 166 165 164 162 161 160 160 160 159 159 160 160 161 163 165 167 167 167 168 171 178 184 187 185 176
152 157 159 156 149 146 145 146 144 142 140 141 148 152 153 153 153 153 154 155 155 154 153 153 154 157 159 161 163 166 168 169 169 169 169 168 167 167 167 167 167 168 167 166 165 164 163 162 162 162 162 163 164 166 167 167 167 166 167 168 168 169 171 173 179 185 188 188 179
163 167 165 160 154 149 145 144 142 141 140 141 150 153 153 151 151 152 153 154 153 153 153 153 154 157 159 161 163 165 166 167 168 168 167 166 165 165 164 163 165 165 166 166 165 165 165 165 166 167 168 171 173 174 175 175 173 169 166 165 166 168 169 171 174 177 179 180 176
64 56 55 100 153 157 154 147 142 139 139 140 150 154 153 149 149 150 151 151 152 154 155 156 156 157 159 161 162 162 162 162 164 164 163 162 161 161 160 159 160 162 164 166 165 165 165 166 167 168 169 172 174 176 176 178 174 168 163 160 160 162 164 166 168 169 170 171 171
54 50 44 40 55 91 130 146 143 138 134 132 140 146 146 142 142 144 146 149 153 156 158 158 158 159 160 161 160 159 158 160 163 164 164 162 161 160 160 160 160 162 164 167 166 164 163 163 163 163 163 165 168 170 172 174 171 165 160 157 157 157 157 160 160 160 160 161 163
52 51 49 47 49 53 59 66 71 78 84 93 107 119 124 123 124 128 135 143 150 156 161 163 163 163 162 162 161 160 160 162 167 173 177 179 176 170 166 169 170 170 169 170 169 169 167 163 161 161 160 161 163 165 167 168 166 163 159 156 155 153 152 150 149 148 148 150 155
50 51 50 50 52 54 56 55 53 49 44 40 44 60 85 103 109 112 116 120 131 145 158 166 168 168 168 168 168 169 170 171 174 178 181 182 178 171 167 169 175 176 175 172 170 169 169 167 163 161 161 161 161 162 162 161 162 161 159 156 154 151 147 142 139 138 140 143 148
46 47 47 47 49 51 53 55 54 51 47 40 33 32 37 57 81 93 97 97 104 118 139 156 163 165 165 166 168 172 178 181 182 180 178 175 172 169 167 169 174 178 177 171 165 163 163 161 157 155 156 158 159 159 158 158 160 159 158 156 154 151 148 143 139 135 133 133 135
41 42 42 43 44 46 47 49 51 51 49 45 41 37 34 33 41 54 66 74 79 90 108 127 141 149 153 155 158 163 170 176 180 180 178 176 175 175 175 176 178 178 174 166 161 158 155 153 150 149 150 154 157 157 155 153 153 153 154 155 154 152 149 145 141 136 130 124 123
40 41 41 41 41 41 42 44 46 47 47 46 44 43 42 41 40 39 39 41 44 52 67 84 100 123 138 143 147 149 152 156 162 166 169 172 176 179 181 182 182 180 174 167 162 159 155 152 150 149 150 151 150 148 145 142 144 146 149 153 152 150 147 143 139 135 130 124 121
39 42 43 44 43 42 41 42 42 43 43 44 44 44 44 44 42 40 36 32 27 26 28 38 53 75 101 119 127 131 134 139 144 144 144 149 161 170 176 179 181 179 175 170 166 163 160 156 154 153 151 147 144 141 138 138 139 141 144 147 147 145 143 139 136 133 129 124 121
38 41 43 44 45 44 44 44 45 45 45 44 44 44 44 43 41 39 37 34 29 23 18 20 36 50 63 77 96 108 116 123 128 131 133 137 140 145 152 159 169 173 174 173 170 166 162 158 155 151 147 142 140 138 138 138 138 139 139 140 140 138 136 133 131 130 127 125 122
37 39 42 43 44 44 44 45 46 48 48 49 48 48 47 46 43 39 36 34 31 28 27 30 38 43 47 49 60 75 88 97 109 120 128 132 132 132 133 134 142 154 164 168 166 163 158 154 149 145 141 140 139 137 137 137 137 137 137 137 136 135 132 130 130 130 130 129 128
36 38 40 42 42 41 41 42 43 45 47 48 49 50 51 50 47 44 40 36 34 33 32 33 36 38 40 42 46 52 60 70 86 101 113 120 125 126 126 126 130 138 146 152 153 150 146 142 138 136 135 134 131 130 131 132 132 132 132 134 135 135 134 132 132 132 132 132 132
33 36 38 40 40 40 39 40 41 43 45 46 47 48 49 50 49 47 44 42 40 38 37 35 35 36 38 43 48 52 56 62 71 81 92 103 111 115 116 116 123 131 137 141 140 138 135 133 131 130 129 126 123 122 124 125 125 126 128 130 132 131 131 130 131 132 133 133 132
30 33 35 38 38 38 38 39 41 43 45 46 46 46 46 47 47 46 45 45 45 45 44 41 39 38 40 45 54 61 64 67 70 75 81 89 96 98 99 100 107 120 128 132 131 130 129 128 127 126 124 120 117 116 118 119 119 121 123 125 125 125 126 127 129 130 131 130 128
27 29 32 33 34 35 36 36 38 41 43 44 44 43 43 44 44 43 44 45 48 49 48 45 43 42 43 47 56 65 71 75 75 76 79 84 87 88 88 87 91 103 113 121 123 125 125 125 124 123 120 117 115 114 116 116 117 119 121 122 121 121 122 122 123 124 125 125 124
24 27 29 30 31 31 32 33 35 37 39 39 39 39 39 38 38 38 39 42 47 49 48 46 44 42 43 44 51 61 70 79 82 82 82 84 87 88 88 87 88 95 103 111 116 119 121 122 121 120 118 114 113 113 114 114 115 117 118 118 118 118 117 117 117 117 118 119 121
22 24 27 28 29 30 30 31 32 34 35 35 35 34 34 34 33 32 32 37 44 47 47 45 44 41 39 40 44 51 61 75 83 85 86 86 89 92 92 91 90 93 99 107 112 116 118 119 119 118 117 114 113 113 113 112 113 113 113 112 111 111 111 111 112 113 114 116 118
20 22 24 27 28 28 29 30 32 32 32 31 31 31 30 30 30 29 28 32 40 45 46 47 45 42 39 38 42 46 52 65 78 85 88 87 89 92 94 94 92 93 99 106 111 113 115 117 117 116 115 114 114 115 114 114 113 112 111 109 106 104 104 106 109 111 113 116 119
18 20 22 24 26 27 29 30 31 31 30 30 29 28 28 28 28 27 27 30 37 42 46 48 47 45 43 42 44 45 48 56 70 81 87 89 88 89 92 94 94 96 100 107 110 112 113 114 113 112 110 109 111 113 114 115 114 113 111 110 107 104 102 103 108 111 114 118 122
15 17 19 22 23 24 26 29 29 29 29 29 29 28 27 27 26 25 26 30 34 38 42 46 46 47 48 48 50 49 49 51 60 74 84 90 89 88 89 92 93 96 101 107 109 111 111 111 109 107 104 102 104 107 111 114 114 114 114 115 115 113 109 106 107 111 115 120 125
13 14 15 17 19 20 22 24 25 25 26 28 27 27 26 26 27 27 28 31 32 34 37 41 43 44 46 49 53 53 52 50 54 65 79 88 90 90 90 92 92 94 98 105 108 110 110 109 108 106 103 101 101 104 110 114 115 117 120 122 122 121 119 113 108 108 112 119 126